Columbia County, Pennsylvania, United States
Lat: 41.04N, Lon: 76.43W
Wx Zone: PAZ053
Local Info
Past Weather Observations for Sunday, December 14, 2014

NOTE: This archive is for the closest National Weather Service station to Columbia County. Information may differ from the station used for current weather conditions.

Click here for Long-term Archive

Time Weather Temperature Dewpoint Humidity Pressure Winds Precip Visibility
23:53
Overcast
43°F / 6°C 34°F / 1°C 71% 30.04 in
(1017 mb)
NNW 6.9 mph
(NNW 11 kph)
- 10SM
22:53
Overcast
43°F / 6°C 34°F / 1°C 71% 30.06 in
(1018 mb)
NW 6.9 mph
(NW 11 kph)
- 10SM
21:53
Overcast
43°F / 6°C 34°F / 1°C 71% 30.06 in
(1018 mb)
NW 5.8 mph
(NW 9 kph)
- 10SM
20:53
Overcast
43°F / 6°C 34°F / 1°C 71% 30.04 in
(1017 mb)
NW 5.8 mph
(NW 9 kph)
- 10SM
19:53
Overcast
43°F / 6°C 34°F / 1°C 71% 30.04 in
(1017 mb)
Variable 6.9 mph
(Variable 11 kph)
- 10SM
18:53
Overcast
43°F / 6°C 34°F / 1°C 71% 30.04 in
(1017 mb)
WNW 5.8 mph
(WNW 9 kph)
- 10SM
17:53
Overcast
43°F / 6°C 34°F / 1°C 71% 30.01 in
(1016 mb)
WNW 6.9 mph
(WNW 11 kph)
- 10SM
16:53
Overcast
43°F / 6°C 34°F / 1°C 71% 30.01 in
(1016 mb)
NW 6.9 mph
(NW 11 kph)
- 10SM
15:53
Overcast
43°F / 6°C 34°F / 1°C 71% 29.98 in
(1015 mb)
NW 4.6 mph
(NW 7 kph)
- 10SM
14:53
Overcast
43°F / 6°C 34°F / 1°C 71% 29.98 in
(1015 mb)
NW 5.8 mph
(NW 9 kph)
- 10SM
13:53
Overcast
43°F / 6°C 34°F / 1°C 71% 29.98 in
(1015 mb)
NW 9.2 mph
(NW 15 kph)
- 10SM
12:53
Overcast
43°F / 6°C 34°F / 1°C 71% 29.98 in
(1015 mb)
NW 9.2 mph
(NW 15 kph)
- 10SM
11:53
Overcast
43°F / 6°C 34°F / 1°C 71% 29.98 in
(1015 mb)
NW 9.2 mph
(NW 15 kph)
- 10SM
10:53
Overcast
43°F / 6°C 34°F / 1°C 71% 29.98 in
(1015 mb)
NW 9.2 mph
(NW 15 kph)
- 10SM
09:53
Overcast
43°F / 6°C 36°F / 2°C 76% 29.98 in
(1015 mb)
NW 3.5 mph
(NW 6 kph)
- 10SM
08:53
Overcast
37°F / 3°C 34°F / 1°C 87% 29.98 in
(1015 mb)
NW 3.5 mph
(NW 6 kph)
- 10SM
07:53
Overcast
36°F / 2°C 32°F / 0°C 87% 29.98 in
(1015 mb)
Calm - 7SM
06:53
Overcast
36°F / 2°C 32°F / 0°C 87% 29.98 in
(1015 mb)
Calm - 10SM
05:53
Overcast
36°F / 2°C 30°F / -1°C 81% 29.95 in
(1014 mb)
Calm - 10SM
04:53
Overcast
36°F / 2°C 30°F / -1°C 81% 29.95 in
(1014 mb)
Calm - 10SM
03:53
Overcast
36°F / 2°C 30°F / -1°C 81% 29.98 in
(1015 mb)
Calm - 10SM
02:53
Overcast
36°F / 2°C 30°F / -1°C 81% 29.98 in
(1015 mb)
Calm - 10SM
01:53
Overcast
36°F / 2°C 30°F / -1°C 81% 29.98 in
(1015 mb)
Calm - 10SM
00:53
Overcast
37°F / 3°C 28°F / -2°C 70% 29.98 in
(1015 mb)
Calm - 10SM
Time Weather Temperature Dewpoint Humidity Pressure Winds Precip Visibility


Weather for websites

WeatherForYou.com, LLC is not responsible for any damages or problems caused by this service. Current weather conditions are obtained from the closest station including government and personal stations which may have varying degrees of accuracy. Weather forecasts are derived from the NOAA NDFD. Like all things, this site belongs to Jesus Christ... He just trusts me to maintain it. If you have any questions or comments email webmaster@weatherforyou.com

Copyright © 2014, WeatherForYou.com LLC. All rights reserved.